DateTimeUTC,F1_A11,F1_S11,BsB_S11,BsG_S11,BsR_S11,BbsB_S11,BbsG_S11,BbsR_S11,BaB_A11,BaG_A11,BaR_A11,Tu_S11,T_S11,Uu_S11,U_S11,P_S11,T1_A11
2021-11-24T06:00:00Z,00000200,21000000,,,,,,,0000.13,0000.22,0000.05,18.3,25.1,,00.0,0643.5,30.8
2021-11-24T06:01:00Z,00000200,21000000,,,,,,,0000.15,-000.02,-000.09,18.3,25.1,,00.0,0643.5,30.8
2021-11-24T06:02:00Z,00000200,21000000,,,,,,,0000.01,0000.16,0000.27,18.3,25.1,,00.0,0643.5,30.8
2021-11-24T06:03:00Z,00000200,61000000,,,,,,,0000.41,0000.31,0000.14,18.3,25.1,,00.0,0643.5,30.8
2021-11-24T06:04:00Z,00000200,41000000,0000.57,0000.39,-000.01,0000.21,0000.11,-000.24,0000.35,0000.20,0000.29,18.5,25.0,,00.0,0644.2,30.8
2021-11-24T06:05:00Z,00000200,01000000,0000.30,0000.09,0000.25,0001.02,-000.15,0000.01,0000.28,0000.33,-000.19,18.6,25.0,,00.0,0644.2,30.8
2021-11-24T06:06:00Z,00000200,01000000,0000.52,0000.34,0000.62,0000.46,0000.11,0000.18,0000.18,0000.15,0000.39,18.6,25.0,,00.0,0644.2,30.8
2021-11-24T06:07:00Z,00000200,01000000,0000.02,0000.12,-000.10,-000.12,0000.01,-000.11,0000.05,0000.18,0000.43,18.7,25.0,,00.0,0644.1,30.8
2021-11-24T06:08:00Z,00000200,01000000,0000.45,0000.47,0000.03,0000.60,-000.10,0000.14,0000.35,0000.09,-000.24,18.7,25.0,,00.0,0644.1,30.8
2021-11-24T06:09:00Z,00000200,01000000,0000.71,0000.69,-000.09,0000.41,-000.22,-000.01,0000.57,0000.48,0000.48,18.7,25.0,,00.0,0644.1,30.8
2021-11-24T06:10:00Z,00000200,01000000,0000.15,0000.37,0000.23,0000.67,0000.02,0000.18,-000.10,0000.32,0000.31,18.7,25.0,,00.0,0644.1,30.8
2021-11-24T06:11:00Z,00000200,01000000,0000.77,0000.40,0000.08,0000.16,-000.03,0000.01,0000.15,0000.03,-000.03,18.7,25.0,,00.0,0644.1,30.8
2021-11-24T06:12:00Z,00000200,01000000,0000.37,0000.34,-000.06,0000.61,-000.13,0000.29,0000.39,0000.28,0000.54,18.8,25.0,,00.0,0644.1,30.8
2021-11-24T06:13:00Z,00000200,01000000,0000.46,0000.61,0000.20,0000.44,0000.06,0000.23,0000.39,0000.30,-000.06,18.8,25.0,,00.0,0644.1,30.8
2021-11-24T06:14:00Z,00000200,01000000,0000.25,-000.06,0000.20,0000.15,-000.21,-000.08,0000.16,0000.11,0000.37,18.8,25.0,,00.0,0644.0,30.8
2021-11-24T06:15:00Z,00000200,01000000,0000.07,0000.33,0000.33,0000.19,-000.23,0000.13,0000.44,0000.40,0000.28,18.8,25.0,,00.0,0644.0,30.8
2021-11-24T06:16:00Z,00000200,01000000,0000.96,0000.12,0000.28,0000.41,-000.15,-000.06,0000.55,0000.34,0000.15,18.8,25.1,,00.0,0643.9,30.8
2021-11-24T06:17:00Z,00000200,01000000,0000.97,0000.24,0000.39,0000.58,-000.07,-000.23,-000.08,0000.27,0000.03,18.8,25.1,,00.0,0643.9,30.8
2021-11-24T06:18:00Z,00000200,01000000,0000.60,0000.27,0000.21,0000.33,-000.15,0000.29,0000.18,-000.18,0000.48,18.8,25.1,,00.0,0643.9,30.8
2021-11-24T06:19:00Z,00000200,01000000,0000.35,0000.32,0000.38,0001.18,0000.09,0000.07,0000.21,0000.62,0000.16,18.9,25.1,,00.0,0643.8,30.8
2021-11-24T06:20:00Z,00000200,01000000,0000.71,0000.44,0000.19,0000.80,-000.01,0000.38,0000.33,0000.15,0000.34,18.9,25.0,,00.0,0643.8,30.8
2021-11-24T06:21:00Z,00000200,01000000,0001.05,0000.29,0000.26,0000.28,-000.02,-000.27,0000.37,0000.19,-000.15,18.9,25.1,,00.0,0643.7,30.8
2021-11-24T06:22:00Z,00000200,01000000,0000.79,0000.47,0000.09,0001.31,-000.17,0000.23,0000.11,0000.28,0000.30,18.9,25.1,,00.0,0643.7,30.8
2021-11-24T06:23:00Z,00000200,01000000,0000.53,0000.32,0000.39,0000.74,0000.12,0000.27,0000.19,0000.17,0000.20,18.9,25.1,,00.0,0643.7,30.8
2021-11-24T06:24:00Z,00000200,01000000,-000.15,0000.31,0000.14,0000.11,0000.33,0000.06,0000.03,-000.01,0000.27,18.9,25.1,,00.0,0643.7,30.8
2021-11-24T06:25:00Z,00000200,01000000,0000.25,0000.26,-000.15,0000.64,0000.30,-000.17,0000.35,0000.45,-000.21,18.8,25.0,,00.0,0643.7,30.8
2021-11-24T06:26:00Z,00000200,01000000,0000.78,0000.52,0000.30,0000.67,0000.07,0000.03,0000.34,0000.05,0000.24,18.8,25.1,,00.0,0643.8,30.8
2021-11-24T06:27:00Z,00000200,01000000,0001.17,0000.21,-000.02,0000.66,-000.32,-000.12,0000.20,0000.30,0000.33,18.8,25.1,,00.0,0643.8,30.8
2021-11-24T06:28:00Z,00000200,01000000,0000.52,0000.60,0000.23,0000.94,-000.22,-000.54,0000.37,0000.46,0000.29,18.8,25.1,,00.0,0643.8,30.8
2021-11-24T06:29:00Z,00000200,01000000,0000.75,-000.01,-000.21,0000.36,-000.19,-000.30,0000.37,-000.11,0000.06,18.8,25.1,,00.0,0643.8,30.8
2021-11-24T06:30:00Z,00000200,01000000,0001.40,0000.27,-000.09,0000.80,0000.12,-000.24,0000.34,0000.40,0000.41,18.9,25.1,,00.0,0643.8,30.8
2021-11-24T06:31:00Z,00000200,01000000,0000.71,0000.26,0000.12,0000.26,-000.15,0000.04,-000.28,0000.07,-000.05,18.9,25.1,,00.0,0643.8,30.8
2021-11-24T06:32:00Z,00000200,01000000,0000.19,0000.33,0000.09,0001.10,-000.23,-000.02,0000.59,0000.52,0000.01,18.9,25.1,,00.0,0643.7,30.8
2021-11-24T06:33:00Z,00000200,01000000,0000.45,0000.27,0000.17,0000.67,0000.12,0000.17,0000.19,0000.12,0000.55,18.9,25.1,,00.0,0643.7,30.8
2021-11-24T06:34:00Z,00000200,01000000,0000.61,0000.12,-000.22,0000.47,0000.17,0000.10,0000.22,0000.24,0000.18,18.9,25.1,,00.0,0643.7,30.8
2021-11-24T06:35:00Z,00000200,01000000,0000.60,0000.35,0000.22,0000.87,-000.08,-000.11,0000.31,0000.17,0000.10,18.9,25.1,,00.0,0643.6,30.8
2021-11-24T06:36:00Z,00000200,01000000,0000.75,0000.46,0000.30,0000.64,-000.03,-000.04,0000.07,0000.17,0000.40,18.9,25.1,,00.0,0643.6,30.8
2021-11-24T06:37:00Z,00000200,01000000,0000.29,0000.02,0000.18,0000.78,0000.17,-000.17,0000.12,-000.05,-000.12,18.8,25.1,,00.0,0643.5,30.8
2021-11-24T06:38:00Z,00000200,01000000,0000.19,-000.28,0000.20,0000.82,0000.05,-000.09,0000.63,0000.86,0000.71,18.7,25.1,,00.0,0643.4,30.8
2021-11-24T06:39:00Z,00000200,01000000,0000.76,0000.13,-000.12,0000.47,-000.12,0000.26,0000.11,-000.05,-000.32,18.6,25.0,,00.0,0643.4,30.7
2021-11-24T06:40:00Z,00000200,01000000,0000.89,0000.53,0000.20,0001.08,0000.06,-000.31,0000.35,0000.28,0000.31,18.5,25.0,,00.0,0643.4,30.7
2021-11-24T06:41:00Z,00000200,01000000,0000.59,0000.04,0000.05,0000.18,-000.04,-000.08,0000.30,0000.42,0000.33,18.5,25.0,,00.0,0643.4,30.7
2021-11-24T06:42:00Z,00000200,01000000,0001.28,0000.20,-000.00,0000.61,-000.32,0000.00,0000.16,0000.09,-000.04,18.5,24.9,,00.0,0643.4,30.7
2021-11-24T06:43:00Z,00000200,01000000,0000.51,0000.25,0000.15,0000.82,-000.20,-000.04,0000.17,-000.08,0000.18,18.6,25.0,,00.0,0643.4,30.7
2021-11-24T06:44:00Z,00000200,01000000,-000.48,0000.27,0000.09,-000.31,-000.22,0000.11,-000.07,0000.33,-000.10,18.6,24.9,,00.0,0643.4,30.8
2021-11-24T06:45:00Z,00000200,01000000,-000.02,0000.26,0000.15,0000.91,0000.05,-000.02,0000.19,0000.22,0000.32,18.6,25.0,,00.0,0643.4,30.8
2021-11-24T06:46:00Z,00000200,01000000,0001.03,0000.39,0000.06,-000.04,0000.16,-000.11,0000.42,0000.37,0000.05,18.6,24.9,,00.0,0643.3,30.8
2021-11-24T06:47:00Z,00000200,01000000,0000.45,0000.35,-000.02,0001.01,-000.18,-000.18,0000.34,0000.09,0000.60,18.7,25.0,,00.0,0643.3,30.8
2021-11-24T06:48:00Z,00000200,01000000,0000.68,0000.38,0000.45,0000.80,0000.17,0000.21,0000.07,0000.19,0000.29,18.7,25.0,,00.0,0643.3,30.8
2021-11-24T06:49:00Z,00000200,01000000,0000.56,0000.63,0000.29,0000.55,-000.10,0000.28,0000.47,0000.40,0000.11,18.7,25.0,,00.0,0643.2,30.8
2021-11-24T06:50:00Z,00000200,01000000,-000.59,0000.67,0000.06,-000.20,-000.33,-000.19,0000.29,0000.28,0000.14,18.7,25.0,,00.0,0643.2,30.8
2021-11-24T06:51:00Z,00000200,01000000,0000.31,0000.36,0000.25,0000.58,0000.15,0000.09,0000.44,0000.12,0000.47,18.8,25.0,,00.0,0643.1,30.8
2021-11-24T06:52:00Z,00000200,01000000,0000.25,0000.31,0000.32,0000.82,-000.22,0000.25,0000.13,0000.45,-000.03,18.8,25.0,,00.0,0643.1,30.8
2021-11-24T06:53:00Z,00000200,01000000,0000.74,0000.64,0000.13,0001.14,0000.10,0000.20,0000.52,0000.27,0000.34,18.8,25.0,,00.0,0643.1,30.8
2021-11-24T06:54:00Z,00000200,01000000,-000.34,0000.61,0000.46,0000.83,0000.31,0000.45,-000.42,0000.11,0000.15,18.8,25.0,,00.0,0643.0,30.8
2021-11-24T06:55:00Z,00000200,01000000,-000.40,0000.27,0000.06,0000.78,-000.11,-000.36,0000.91,0000.09,0000.13,18.8,25.0,,00.0,0643.0,30.8
2021-11-24T06:56:00Z,00000200,01000000,-000.15,0000.40,0000.32,0000.93,0000.21,-000.02,0000.28,0000.66,0000.01,18.7,25.0,,00.0,0643.0,30.8
2021-11-24T06:57:00Z,00000200,41000000,,,,,,,-001.28,-001.33,-000.78,18.8,25.0,,00.0,0643.0,30.8
2021-11-24T06:58:00Z,00000200,61000000,,,,,,,0000.73,0000.64,0000.47,18.4,25.1,,00.0,0642.1,30.8
2021-11-24T06:59:00Z,00000200,21000000,,,,,,,0000.17,0000.41,0000.65,18.4,25.2,,00.0,0642.1,30.8
